Lexington Weather

Lexington, Massachusetts, USA

54°F
5/18/2024 12:22am 
  • Lexington Conditions: Clear
  • Temperature: 54.1°F / 12.3°CColder 1.3°F than last hour.
  • Dew Point: 49.8°FDecreased 0.6°Fsince last hour.
  • Relative Humidity: 85%Increased 2.0% since last hour.
  • Wind: Calm, 10-min avg: Calm, gust: None
  • Barometer: 29.96 in Steady
  • Visibility: 10 miles
  • Rain Today: 0.00 in
  •   

Regional Weather Roundup
for Boston, MA

        
000
ASUS41 KBOX 172010
RWRBOX

REGIONAL WEATHER ROUNDUP
NATIONAL WEATHER SERVICE BOSTON/NORTON MA
400 PM EDT FRI MAY 17 2024

NOTE:  "FAIR" INDICATES FEW OR NO CLOUDS BELOW 12,000 FEET WITH NO 
SIGNIFICANT WEATHER AND/OR OBSTRUCTIONS TO VISIBILITY.

MAZALL-172100-
EASTERN MASSACHUSETTS
  
CITY           SKY/WX    TMP DP  RH WIND       PRES   REMARKS
BOSTON         CLOUDY    60  53  77 NE16      30.00R                  
BEVERLY        SUNNY     62  54  74 NE9       30.00R                  
LAWRENCE       CLOUDY    63  53  70 NE14      30.02R                  
BEDFORD        PTSUNNY   68  53  58 E14G20    29.97R                  
NORWOOD        MOSUNNY   65  54  67 E10       29.99R                  
MARSHFIELD     CLOUDY    57  52  82 NE8G15    29.99R                  
PLYMOUTH       MOSUNNY   60  51  72 NE14      29.97R                  
TAUNTON        MOSUNNY   67  50  54 E8G17     29.96R                  
NEW BEDFORD    MOSUNNY   67  54  63 NE17G28   29.94R                  
$$

MAZALL-172100-
CAPE COD AND THE ISLANDS
  
CITY           SKY/WX    TMP DP  RH WIND       PRES   REMARKS
FALMOUTH       PTSUNNY   61  50  67 NE17G26   29.94S                  
HYANNIS        CLOUDY    60  49  66 E12G21    29.92S                  
CHATHAM        CLOUDY    58  48  69 NE13G23   29.94F                  
PROVINCETOWN   PTSUNNY   57  52  83 NE10      29.97F                  
NANTUCKET      CLOUDY    55  50  83 NE21G31   29.91R                  
MARTHAS VNYRD  PTSUNNY   64  52  64 NE22G31   29.93R                  
$$
 
MAZALL-172100-
CENTRAL AND WESTERN MASSACHUSETTS
  
CITY           SKY/WX    TMP DP  RH WIND       PRES   REMARKS
WORCESTER      PTSUNNY   70  50  49 E9        29.97R                  
FITCHBURG      CLOUDY    71  51  49 E10G21    29.98R                  
ORANGE         CLOUDY    74  50  42 E6        29.96R                  
SPRINGFIELD    PTSUNNY   75  50  41 NE5       29.90F                  
WESTFIELD      CLOUDY    74  53  48 E3        29.93F                  
NORTH ADAMS    CLOUDY    74  53  48 VRB6      29.94F                  
PITTSFIELD     CLOUDY    69  52  54 E3        29.95S                  
$$
 
RIZALL-172100-
RHODE ISLAND
  
CITY           SKY/WX    TMP DP  RH WIND       PRES   REMARKS
PROVIDENCE     PTSUNNY   70  55  59 NE12      29.95R                  
NEWPORT        SUNNY     67  54  63 NE12G23   29.93S                  
BLOCK ISLAND   PTSUNNY   61  53  75 NE16G22   29.94R                  
SMITHFIELD     MOSUNNY   71  54  54 NE14      29.96S                  
WESTERLY       CLOUDY    71  53  52 NE7G20    29.92S                  
$$
 
CTZALL-172100-
CONNECTICUT
  
CITY           SKY/WX    TMP DP  RH WIND       PRES   REMARKS
BRADLEY INTL   PTSUNNY   77  52  41 NE10      29.93S                  
HARTFORD       MOSUNNY   75  53  46 E7        29.91F                  
PLAINVILLE     CLOUDY    73  53  48 E5        29.92F                  
BRIDGEPORT     CLOUDY    68  53  58 SW6       29.92F                  
DANBURY        CLOUDY    73  53  49 NE8       29.94F                  
GROTON         CLOUDY    68  56  65 SE12      29.91S                  
NEW HAVEN      CLOUDY    69  56  62 SW5       29.92F                  
CHESTER        PTSUNNY   75  50  41 NE8       29.93F                  
MERIDEN        CLOUDY    73  52  47 E6        29.92F                  
WILLIMANTIC    MOSUNNY   73  50  44 NE14G20   29.93S                  
OXFORD         CLOUDY    71  53  52 E9        29.94F                  
$$

MEZ002-015-021-024-NHZ003-005-008-011-012-014-VTZ005-008-172100-
NORTHERN NEW ENGLAND
  
CITY           SKY/WX    TMP DP  RH WIND       PRES   REMARKS
PORTLAND ME    PTSUNNY   60  53  77 E9        30.04S                  
BANGOR ME      PTSUNNY   71  58  63 VRB6      30.00R                  
CONCORD NH     SUNNY     73  49  42 E10G22    29.98S                  
MANCHESTER NH  PTSUNNY   71  53  52 E13G20    29.97S                  
NASHUA NH      CLOUDY    71  54  54 E10G16    29.99R                  
PORTSMOUTH NH  PTSUNNY   61  51  70 E12       30.02R                  
JAFFREY NH     CLOUDY    71  47  42 VRB7      29.98R                  
KEENE NH       PTSUNNY   74  49  41 VRB5      29.95S                  
BURLINGTON VT  PTSUNNY   79  51  37 S9        29.91F                  
MT. WASHINGTON FOG       45  45 100 SE24        N/A  VSB 0            
$$

NYZ052-076-172100-
EASTERN NEW YORK
  
CITY           SKY/WX    TMP DP  RH WIND       PRES   REMARKS
ALBANY         PTSUNNY   74  52  46 SE3       29.93F                  
NEW YORK CITY  PTSUNNY   71  51  49 VRB3      29.93S                  
$$
 
ANZALL-172100-
MARINE OBSERVATIONS
  
STATION/POSITION TIME  TEMP    WIND        PRES    VSBY  WAVE
                       AIR SEA DIR/SP/G                  HT/PER
                 (UTC) (F)     (DEG/KT/KT) (MB)    (MI)  (FT/S)
BOSTON BUOY      1950   53 53   20/ 10/ 12 1016.0R         4/ 9
BUZZARDS BAY     1900   57      40/ 21/ 23 1013.3R
NANTUCKET SOUND  1950   55 55   50/ 17/ 21 1013.0S         3/ 4
MASS BAY-STELLWA 1804   53 53   40/ 12/ 14 1016.0F  1 7/8  4/ 8
ISLE OF SHOALS   1900   53      50/ 12/ 15 1015.8R
S OF BLOCK IS    1956      49                N/A           5/ 8
$$

......................KEY.........................
  SKY/WX - SKY CONDITION/PRESENT WEATHER
  TMP    - TEMPERATURE IN FAHRENHEIT
  DWPT   - DEWPOINT IN FAHRENHEIT
  RH     - RELATIVE HUMIDITY IN PERCENT
  WIND   - DIRECTION AND SPEED IN MPH
  PRES   - MEAN SEA LEVEL PRESSURE IN INCHES OF HG
  WCI    - WIND CHILL INDEX
  VSB    - VISIBILITY IN MILES
  HX     - HEAT INDEX
  TC     - TEMPERATURE IN CELSIUS
  VRB    - VARIABLE WIND DIRECTION
  N/A    - NOT AVAILABLE
  
      

Other recent Regional Weather Roundups

Fri May 17, 11:10pm EDT

Fri May 17, 10:10pm EDT

Fri May 17, 9:10pm EDT

Fri May 17, 8:10pm EDT

Fri May 17, 7:10pm EDT

Fri May 17, 6:10pm EDT

Fri May 17, 5:10pm EDT

Fri May 17, 3:10pm EDT

Fri May 17, 2:10pm EDT

Fri May 17, 1:10pm EDT

Fri May 17, 12:10pm EDT

Fri May 17, 11:10am EDT

Fri May 17, 10:10am EDT

Fri May 17, 9:10am EDT

Fri May 17, 8:10am EDT

Fri May 17, 7:10am EDT

Fri May 17, 6:10am EDT

Fri May 17, 5:10am EDT

Fri May 17, 4:10am EDT

Fri May 17, 3:10am EDT

Fri May 17, 2:10am EDT

Fri May 17, 1:10am EDT

Fri May 17, 12:10am EDT

Thu May 16, 11:10pm EDT

Thu May 16, 10:10pm EDT

Thu May 16, 9:10pm EDT

Thu May 16, 8:10pm EDT

Thu May 16, 7:10pm EDT

Thu May 16, 6:10pm EDT

Thu May 16, 5:10pm EDT

Thu May 16, 4:10pm EDT

Thu May 16, 3:10pm EDT

Thu May 16, 2:10pm EDT

Thu May 16, 1:10pm EDT

Thu May 16, 12:10pm EDT

Thu May 16, 11:10am EDT

Thu May 16, 10:10am EDT

Thu May 16, 9:10am EDT

Thu May 16, 8:10am EDT

Thu May 16, 7:10am EDT

Thu May 16, 6:10am EDT

Thu May 16, 5:10am EDT

Thu May 16, 4:10am EDT

Thu May 16, 3:10am EDT

Thu May 16, 2:10am EDT

Thu May 16, 1:10am EDT

Thu May 16, 12:10am EDT

Wed May 15, 11:10pm EDT

Wed May 15, 10:10pm EDT

Wed May 15, 9:10pm EDT

Wed May 15, 8:10pm EDT

Wed May 15, 7:10pm EDT

Wed May 15, 6:10pm EDT

Wed May 15, 5:10pm EDT

Wed May 15, 4:10pm EDT

Wed May 15, 3:10pm EDT

Wed May 15, 2:10pm EDT

Wed May 15, 1:10pm EDT

Wed May 15, 12:10pm EDT

Wed May 15, 11:10am EDT

Wed May 15, 10:10am EDT

Wed May 15, 9:10am EDT

Wed May 15, 8:10am EDT

Wed May 15, 7:10am EDT

Wed May 15, 6:10am EDT

Wed May 15, 5:10am EDT

Wed May 15, 4:10am EDT

Wed May 15, 3:10am EDT

Wed May 15, 2:10am EDT

Wed May 15, 1:10am EDT

Wed May 15, 12:10am EDT

Tue May 14, 11:10pm EDT

Tue May 14, 10:10pm EDT

Tue May 14, 9:10pm EDT

Tue May 14, 8:10pm EDT

Tue May 14, 7:10pm EDT

Tue May 14, 6:10pm EDT

Tue May 14, 5:10pm EDT

Tue May 14, 4:10pm EDT

Tue May 14, 3:10pm EDT

Tue May 14, 2:10pm EDT

Tue May 14, 1:10pm EDT

Tue May 14, 12:10pm EDT

Tue May 14, 11:10am EDT

Tue May 14, 10:10am EDT

Tue May 14, 9:10am EDT

Tue May 14, 8:10am EDT

Tue May 14, 7:10am EDT

Tue May 14, 6:10am EDT

Tue May 14, 5:10am EDT

Tue May 14, 4:10am EDT

Tue May 14, 3:10am EDT

Tue May 14, 2:10am EDT

Tue May 14, 1:10am EDT

Tue May 14, 12:10am EDT

Mon May 13, 11:10pm EDT

Mon May 13, 10:10pm EDT

Mon May 13, 9:10pm EDT

Mon May 13, 8:10pm EDT

Mon May 13, 7:10pm EDT

Mon May 13, 6:10pm EDT

Mon May 13, 5:10pm EDT

Mon May 13, 4:10pm EDT

Mon May 13, 3:10pm EDT

Mon May 13, 2:10pm EDT

Mon May 13, 1:10pm EDT

Mon May 13, 12:10pm EDT

Mon May 13, 11:10am EDT

Mon May 13, 10:10am EDT

Mon May 13, 9:10am EDT

Mon May 13, 8:10am EDT

Mon May 13, 7:10am EDT

Mon May 13, 6:10am EDT

Mon May 13, 5:10am EDT

Mon May 13, 4:10am EDT

Mon May 13, 3:10am EDT

Mon May 13, 2:10am EDT

Mon May 13, 1:10am EDT

Mon May 13, 12:10am EDT

Sun May 12, 11:10pm EDT

Sun May 12, 10:10pm EDT

Sun May 12, 9:10pm EDT

Sun May 12, 8:10pm EDT

Sun May 12, 7:10pm EDT

Sun May 12, 6:10pm EDT

Sun May 12, 5:10pm EDT

Sun May 12, 4:10pm EDT

Sun May 12, 3:10pm EDT

Sun May 12, 2:10pm EDT

Sun May 12, 1:10pm EDT

Sun May 12, 12:10pm EDT

Sun May 12, 11:10am EDT

Sun May 12, 10:10am EDT

Sun May 12, 9:10am EDT

Sun May 12, 8:10am EDT

Sun May 12, 7:10am EDT

Sun May 12, 6:10am EDT

Sun May 12, 5:10am EDT

Sun May 12, 4:10am EDT

Sun May 12, 3:10am EDT

Sun May 12, 2:10am EDT

Sun May 12, 1:10am EDT

Sun May 12, 12:10am EDT

Sat May 11, 11:10pm EDT

Sat May 11, 10:10pm EDT

Sat May 11, 9:10pm EDT

Sat May 11, 8:10pm EDT

Sat May 11, 7:10pm EDT

Sat May 11, 6:10pm EDT

Sat May 11, 5:10pm EDT

Sat May 11, 4:10pm EDT

Sat May 11, 3:10pm EDT

Sat May 11, 2:10pm EDT

Sat May 11, 1:10pm EDT

Sat May 11, 12:10pm EDT

Sat May 11, 11:10am EDT

Sat May 11, 10:10am EDT

Sat May 11, 9:10am EDT

Sat May 11, 8:10am EDT

Sat May 11, 7:10am EDT

Sat May 11, 6:10am EDT

Sat May 11, 5:10am EDT

Sat May 11, 4:10am EDT

Sat May 11, 3:10am EDT

Sat May 11, 2:10am EDT

Sat May 11, 1:10am EDT

Sat May 11, 12:10am EDT